Regional Weather Roundup
Issued by NWS

Home | Current Version | Previous Version | Graphics & Text | Print | Product List | Glossary On
Versions: 1 2 3 4 5 6 7 8 9 10 11 12 13 14 15 16 17 18 19 20 21 22 23 24 25 26 27 28 29 30 31 32 33 34 35 36 37 38 39 40 41 42 43 44 45 46 47 48 49 50
000
ASUS45 KSLC 272110
RWRUT

UTAH REGIONAL WEATHER ROUNDUP
NATIONAL WEATHER SERVICE SALT LAKE CITY UT
200 PM MST FRI FEB 27 2015

UTZ001>011-023>025-272200-

NORTHERN UTAH

CITY           SKY/WX    TMP DP  RH WIND       PRES   REMARKS
BRIGHAM CITY   CLOUDY    41  26  55 SW9       29.75F
HILL AFB       PTSUNNY   39  23  52 S6        29.73F WCI  35
LOGAN          CLOUDY    38  28  67 SE5       29.75F WCI  34
OGDEN          CLOUDY    42  25  50 SW8       29.73F
PROVO AIRPORT  PTSUNNY   39  30  70 S12       29.77F WCI  32
SALT LAKE CITY PTSUNNY   41  24  51 S5        29.74F
VERNAL         MOSUNNY   36  17  46 W6        29.78F WCI  31
WENDOVER       CLOUDY    45  27  49 SE5       29.71F
HEBER CITY     CLOUDY    37  21  52 W7        29.72F WCI  32
WEST JORDAN    CLOUDY    39  27  60 S10       29.74F WCI  32

$$

UTZ012>022-026-027-272200-

SOUTHERN/CENTRAL UTAH

CITY           SKY/WX    TMP DP  RH WIND       PRES   REMARKS
BLANDING       CLOUDY    32  28  84 SE5       29.87F WCI  27
BRYCE CANYON   CLOUDY    31  20  63 SE8       29.71F WCI  23
CEDAR CITY     MOSUNNY   42  20  41 SW5       29.70F
DELTA          MOSUNNY   46  17  32 SE6       29.71F
HANKSVILLE     PTSUNNY   46  23  39 E3        29.76F
MILFORD        CLOUDY    50  13  22 N6        29.68F
MOAB/CYNLANDS  CLOUDY    44  23  43 CALM      29.74F
PRICE          MOSUNNY   39  15  37 VRB6      29.72F WCI  35
ST GEORGE      CLOUDY    55  25  30 W6        29.71F
KANAB          CLOUDY    45  27  49 SW6       29.75F

$$

REGIONAL REPORTS     COLORADO/ARIZONA

CITY           SKY/WX    TMP DP  RH WIND       PRES   REMARKS
CRAIG, CO      SUNNY     32  17  54 VRB5      29.78F WCI  27
GRAND JUNCTION PTSUNNY   41  23  48 MISG      29.76F
RIFLE          PTSUNNY   38  17  42 S9        29.74F WCI  31
MONTROSE       CLOUDY    32  27  81 NW12      29.78F WCI  23
CORTEZ         LGT SNOW  32  30  92 SW3       29.80F FOG
PAGE, AZ       CLOUDY    43  34  70 NE9       29.76F
GRAND CANYON   CLOUDY    41  28  60 SW15G22   29.75F
KINGMAN        SUNNY     62  23  22 SW13      29.69F
FLAGSTAFF      CLOUDY    39  23  52 SW15      29.75F WCI  31

$$

REGIONAL REPORTS    NEVADA/IDAHO/WYOMING

CITY           SKY/WX    TMP DP  RH WIND       PRES   REMARKS
LAS VEGAS, NV  MOSUNNY   62  20  19 CALM      29.65F
ELY            CLOUDY    41  12  30 S5        29.66F
ELKO           CLOUDY    44  23  43 SW9       29.65F
POCATELLO, ID  PTSUNNY   38  27  64 VRB3      29.75F
BURLEY         PTSUNNY   44  29  55 VRB5      29.70F
EVANSTON, WY   CLOUDY    29  20  69 S12       29.71F WCI  19
ROCK SPRINGS   MOSUNNY   26  11  52 SW6       29.74F WCI  19
KEMMERER       CLOUDY    27  18  69 SW3       29.72F

$$


USA.gov is the U.S. government's official web portal to all federal, state and local government web resources and services.